Regional Weather Roundup
Issued by NWS

Home | Current Version | Previous Version | Text Only | Print | Product List | Glossary On
Versions: 1 2 3 4 5 6 7 8 9 10 11 12 13 14 15 16 17 18 19 20 21 22 23 24 25 26 27 28 29 30 31 32 33 34 35 36 37 38 39 40 41 42 43 44 45 46 47 48 49 50
000
ASUS43 KTOP 230708
RWRKS

WEATHER ROUNDUP FOR KANSAS
NATIONAL WEATHER SERVICE GOODLAND KS
200 AM CDT WED APR 23 2014

NOTE:  "FAIR" INDICATES FEW OR NO CLOUDS BELOW 12,000 FEET WITH NO
SIGNIFICANT WEATHER AND/OR OBSTRUCTIONS TO VISIBILITY.

KSZ001>006-013>018-027>032-041>047-230800-
NORTHWEST KANSAS

CITY           SKY/WX    TMP DP  RH WIND       PRES   REMARKS
GOODLAND       MOCLDY    59  46  62 S28G35    29.70F
HAYS           CLOUDY    61  34  36 SE20G26   29.82F
HILL CITY      CLOUDY    60  37  42 S20G28    29.77F
RUSSELL        CLOUDY    61  31  32 SE23      29.82F
$$

KSZ061>065-074>080-084>089-230800-
SOUTHWEST KANSAS

CITY           SKY/WX    TMP DP  RH WIND       PRES   REMARKS
DODGE CITY     PTCLDY    60  36  40 S21G30    29.83F
ELKHART          N/A     63  40  43 S18         N/A
GARDEN CITY    MOCLDY    58  44  60 S13       29.79F
GREAT BEND     CLOUDY    61  30  31 SE17G24   29.85F
LIBERAL        PTCLDY    64  46  52 E22       29.83F
PRATT          MOCLDY    59  32  36 SE12      29.88F
$$

KSZ066>073-081>083-090>101-230800-
SOUTHEAST KANSAS

CITY           SKY/WX    TMP DP  RH WIND       PRES   REMARKS
CHANUTE        CLOUDY    53  40  61 E6        29.98F
COFFEYVILLE    MOCLDY    49  39  68 E3        29.97F
HUTCHINSON     MOCLDY    58  33  39 S13       29.89F
MEDICINE LODGE   N/A     59  35  40 SE12      29.87F
NEWTON         MOCLDY    55  30  38 SE13      29.93F
PARSONS        CLOUDY    55  37  50 CALM      29.98F
WICHITA INTL   PTCLDY    59  34  39 SE14      29.90F
WICHITA JABRA  PTCLDY    57  35  43 SE12      29.91F
WICHITA MCCONL PTCLDY    57  35  42 E14       29.91F
WINFIELD       CLEAR     58  36  43 SE7       29.94F
$$

KSZ007>012-019>026-033>040-048>060-102>105-230800-
NORTHEAST KANSAS

CITY           SKY/WX    TMP DP  RH WIND       PRES   REMARKS
CONCORDIA      CLOUDY    60  33  36 SE17      29.89F
EMPORIA        PTCLDY    54  36  50 SE10      29.95F HAZE
LAWRENCE       CLOUDY    51  40  65 E6        29.98F
MANHATTAN      CLOUDY    57  36  45 S6        29.96R
OLATHE IND     MOCLDY    53  35  50 SE5       29.99F
OLATHE EXE     CLOUDY    54  35  48 SE5       29.99S
SALINA         CLOUDY    60  33  36 SE12      29.90F
TOPEKA BILLARD MOCLDY    54  37  52 SE7       29.96F
TOPEKA FORBES  MOCLDY    52  35  52 SE6       29.96F
$$



USA.gov is the U.S. government's official web portal to all federal, state and local government web resources and services.